FW6820 Weather Reports


Display with metric or nautical units.
time (UTC)temp
F
wind
direction
speed
MPH
gust
MPH
rain 1hr
in
rain 24hr
in
rain mn
in
humidity
%
barometer
mb
20260906144552 85 144 7.0 15.0 0.00 0.00 0.00 80 1012.8
20260906143041 84 110 8.0 12.0 0.00 0.00 0.00 82 1012.8
20260906141550 83 130 5.0 10.0 0.00 0.00 0.00 84 1012.8
20260906140059 82 163 4.0 8.0 0.00 0.00 0.00 86 1012.7
20260906134553 81 123 3.0 6.0 0.00 0.00 0.00 88 1012.4
20260906133054 81 127 3.0 8.0 0.00 0.00 0.00 89 1012.4
20260906131549 80 123 0.0 2.0 0.00 0.00 0.00 90 1012.1
20260906130048 80 0 0.0 1.0 0.00 0.00 0.00 89 1012.1
20260906124543 79 0 0.0 2.0 0.00 0.00 0.00 89 1011.9
20260906123043 79 0 0.0 1.0 0.00 0.00 0.00 89 1011.6
20260906121556 79 0 0.0 3.0 0.00 0.00 0.00 88 1011.4
20260906120109 79 0 0.0 1.0 0.00 0.00 0.00 88 1011.3
20260906114553 79 0 0.0 2.0 0.00 0.00 0.00 88 1011.1
20260906113059 80 130 0.0 2.0 0.00 0.00 0.00 87 1011.0
20260906111604 80 0 1.0 3.0 0.00 0.00 0.00 87 1010.8
20260906110049 80 134 2.0 5.0 0.00 0.00 0.00 87 1010.8
20260906104545 80 0 0.0 6.0 0.00 0.00 0.00 86 1010.8
20260906103043 80 0 2.0 10.0 0.00 0.00 0.00 86 1010.7
20260906101543 80 135 4.0 10.0 0.00 0.00 0.00 87 1010.4
20260906100049 80 111 3.0 7.0 0.00 0.00 0.00 87 1010.3
20260906094544 78 89 0.0 2.0 0.00 0.00 0.00 86 1010.2
20260906093047 77 82 1.0 4.0 0.00 0.00 0.00 84 1010.2
20260906091549 77 70 1.0 5.0 0.00 0.00 0.00 83 1010.3
20260906090056 76 0 0.0 2.0 0.00 0.00 0.00 83 1010.4
20260906084550 76 74 1.0 3.0 0.00 0.00 0.00 82 1010.6
20260906083043 77 69 1.0 4.0 0.00 0.00 0.00 82 1010.7
20260906081543 77 0 0.0 1.0 0.00 0.00 0.00 82 1010.9
20260906080057 77 339 1.0 2.0 0.00 0.00 0.00 81 1011.2
20260906074549 77 0 0.0 0.0 0.00 0.00 0.00 80 1011.4
20260906073044 77 0 0.0 0.0 0.00 0.00 0.00 80 1011.6
20260906071556 77 0 0.0 0.0 0.00 0.00 0.00 79 1011.8
20260906070051 77 0 0.0 3.0 0.00 0.00 0.00 79 1012.0
20260906064548 77 345 2.0 4.0 0.00 0.00 0.00 80 1012.4
20260906063044 78 346 1.0 5.0 0.00 0.00 0.00 79 1012.4
20260906061558 77 20 1.0 3.0 0.00 0.00 0.00 79 1012.4
20260906060053 77 0 0.0 0.0 0.00 0.00 0.00 78 1012.5
20260906054550 77 0 0.0 0.0 0.00 0.00 0.00 79 1012.3
20260906053050 77 0 0.0 0.0 0.00 0.00 0.00 78 1012.4
20260906051541 77 0 0.0 1.0 0.00 0.00 0.00 78 1012.7
20260906050049 77 296 1.0 5.0 0.00 0.00 0.00 78 1013.0
20260906044546 78 246 3.0 8.0 0.00 0.00 0.00 77 1013.1
20260906043042 78 72 0.0 2.0 0.00 0.00 0.00 78 1013.0
20260906041542 78 0 0.0 1.0 0.00 0.00 0.00 77 1012.8
20260906040051 78 76 0.0 3.0 0.00 0.00 0.00 78 1012.5
20260906034548 77 78 0.0 4.0 0.00 0.00 0.00 77 1012.2
20260906033045 77 0 1.0 4.0 0.00 0.00 0.00 76 1011.9
20260906031550 79 103 1.0 5.0 0.00 0.00 0.00 72 1011.9
20260906030050 79 130 3.0 5.0 0.00 0.00 0.00 68 1012.2
20260906024559 79 150 6.0 12.0 0.00 0.00 0.00 69 1012.3
20260906023043 78 215 7.0 16.0 0.00 0.00 0.00 70 1012.5
20260906021550 77 209 10.0 22.0 0.00 0.00 0.00 74 1012.7
20260906020050 77 241 12.0 23.0 0.00 0.00 0.00 74 1013.4
20260906014552 79 236 17.0 28.0 0.00 0.00 0.00 72 1013.2
20260906013045 86 235 11.0 19.0 0.00 0.00 0.00 67 1012.4
20260906011551 91 138 10.0 19.0 0.00 0.00 0.00 64 1011.4
20260906010048 91 133 14.0 21.0 0.00 0.00 0.00 62 1010.3
20260906004543 92 132 11.0 23.0 0.00 0.00 0.00 60 1010.0
20260906003108 93 128 11.0 20.0 0.00 0.00 0.00 58 1009.6
20260906001549 94 174 11.0 23.0 0.00 0.00 0.00 57 1009.3
20260906000045 95 134 11.0 20.0 0.00 0.00 0.00 54 1008.8
20260905234544 96 158 11.0 20.0 0.00 0.00 0.00 51 1008.7
20260905233053 97 115 11.0 19.0 0.00 0.00 0.00 50 1008.3
20260905231548 97 149 11.0 20.0 0.00 0.00 0.00 49 1008.1
20260905230043 98 146 10.0 24.0 0.00 0.00 0.00 48 1008.0
20260905224551 99 152 9.0 17.0 0.00 0.00 0.00 46 1008.1
20260905223049 99 125 10.0 17.0 0.00 0.00 0.00 45 1008.1
20260905221546 100 122 11.0 27.0 0.00 0.00 0.00 45 1007.8
20260905220045 101 138 11.0 19.0 0.00 0.00 0.00 42 1007.5
20260905214549 101 121 11.0 21.0 0.00 0.00 0.00 42 1007.7
20260905213047 101 95 5.0 17.0 0.00 0.00 0.00 41 1007.9
20260905211544 101 140 9.0 14.0 0.00 0.00 0.00 41 1008.2
20260905210050 100 115 8.0 21.0 0.00 0.00 0.00 44 1008.5
20260905204558 100 104 8.0 15.0 0.00 0.00 0.00 45 1008.7
20260905203054 100 145 10.0 17.0 0.00 0.00 0.00 46 1009.1
20260905201552 99 114 8.0 20.0 0.00 0.00 0.00 47 1009.3
20260905200056 99 98 5.0 15.0 0.00 0.00 0.00 47 1009.5
20260905194549 99 143 5.0 17.0 0.00 0.00 0.00 48 1009.8
20260905193107 99 130 8.0 14.0 0.00 0.00 0.00 48 1010.0
20260905191558 98 130 4.0 14.0 0.00 0.00 0.00 49 1010.2
20260905190052 99 157 7.0 17.0 0.00 0.00 0.00 49 1010.6
20260905184553 98 121 6.0 14.0 0.00 0.00 0.00 51 1010.8
20260905183045 97 100 7.0 17.0 0.00 0.00 0.00 52 1011.0
20260905181551 96 150 8.0 20.0 0.00 0.00 0.00 54 1011.4
20260905180048 95 163 7.0 19.0 0.00 0.00 0.00 55 1011.6
20260905174545 95 145 12.0 19.0 0.00 0.00 0.00 58 1011.8
20260905173042 94 129 8.0 20.0 0.00 0.00 0.00 58 1011.9
20260905171550 94 109 6.0 15.0 0.00 0.00 0.00 61 1012.2
20260905170056 92 155 9.0 17.0 0.00 0.00 0.00 63 1012.3
20260905164545 92 173 8.0 17.0 0.00 0.00 0.00 63 1012.3
20260905163043 92 123 7.0 17.0 0.00 0.00 0.00 64 1012.5
20260905161551 91 154 8.0 17.0 0.00 0.00 0.00 67 1012.5
20260905160051 90 159 8.0 17.0 0.00 0.00 0.00 69 1012.5
20260905154606 89 115 10.0 20.0 0.00 0.00 0.00 70 1012.5
20260905153043 88 142 9.0 15.0 0.00 0.00 0.00 72 1012.8
20260905151552 87 148 9.0 17.0 0.00 0.00 0.00 74 1012.9
20260905150055 86 159 9.0 15.0 0.00 0.00 0.00 77 1012.9